Weather in Zaozernaya

Ukraine / Kherson District     46°36′00″N   33°57′30″E
temp.,
°C
wind,
m/s
gust,
m/s
humid.,
%
clouds,
%
prec.,
mm/h
press.,
hPa
HPBL,
m
6 march, sat
sat623:00+5n228683 0.0 101325
02:00+5sse238883 0.0 101340
05:00+4wsw2284100 0.0 101233
08:00+5nnw4684100 0.0 1014320
11:00+2n101476100 0.0 1017739
14:00+3n91258100 0.0 10191169
17:00+2n81047100 0.0 10221467
20:00−1nnw5115958 0.0 1026497
7 march, sun
sun723:00−2nw48620 0.0 1027315
02:00−2w36650 0.0 1028188
05:00−3wsw48570 0.0 1027211
08:00+1w69500 0.0 1027608
11:00+4w79390 0.0 10251710
14:00+5w8113812 0.0 10231653
17:00+4wsw710470 0.0 10211233
20:00+1sw614600 0.0 1021550
8 march, mon
mon823:00+1sw614670 0.0 1020525
02:00+1wsw615742 0.0 1019508
05:00+1wsw5128433 0.0 1017357
08:00+4wsw6107444 0.0 1017686
11:00+8wsw810509 0.0 10151617
14:00+9w793914 0.0 10142009
17:00+7wnw474692 0.0 1014673
20:00+4n376796 0.0 1016391
9 march, tue
tue923:00+2nne2571100 0.0 1017370
02:000nne248188 0.0 1017168
05:000nw1271100 0.0 1018119
08:00+1nnw3460100 0.0 1020453
11:00+4nnw553919 0.0 10211663
14:00+5nw563752 0.0 10211881
17:00+4nnw4543100 0.0 10211663
20:00+1nne586095 0.0 1024537
10 march, wed
wed1023:00−2nne486329 0.0 1025320
02:00−3ne476529 0.0 1025321
05:00−3ne366643 0.0 1026269
08:00−2ene345361 0.0 1026404
11:00+2ene11396 0.0 10261199
14:00+3w223424 0.0 10241651
17:00+3nw33340 0.0 10231448
20:00−1ne11460 0.0 102421